Overview Statistics Trail Chart Weather Telemetry Raw packets
 

This is the latest recevied weather packets stored in our database for station/object NO9B. If no packets are shown the sender has not sent any weather packets the latest 10 day(s).

<< 108 109 110 111 112 113 114 >>
Time Temp. Humidity Pressure Rain* Wind** Luminosity Snow
1787839395 22.22° C 78% 1017.2 hPa 0 mm - 23 W/m² -
1787839095 22.22° C 76% 1017.2 hPa 0 mm - 22 W/m² -
1787838794 21.67° C 78% 1017 hPa 0 mm - 22 W/m² -
1787838489 21.67° C 79% 1017.1 hPa 0 mm - 21 W/m² -
1787838188 21.67° C 78% 1016.9 hPa 0 mm - 20 W/m² -
1787837888 21.11° C 81% 1017 hPa 0 mm - 20 W/m² -
1787837587 21.11° C 82% 1017.1 hPa 0 mm - 19 W/m² -
1787837287 21.11° C 82% 1017.1 hPa 0 mm - 19 W/m² -
1787836982 20.56° C 83% 1017.2 hPa 0 mm - 18 W/m² -
1787836677 20.56° C 84% 1017.2 hPa 0 mm - 18 W/m² -
1787836376 20.56° C 85% 1017.1 hPa 0 mm - 17 W/m² -
1787836072 20° C 86% 1017 hPa 0 mm - 17 W/m² -
1787835768 20° C 86% 1017.1 hPa 0 mm - 16 W/m² -
1787835462 19.44° C 88% 1017.1 hPa 0 mm - 16 W/m² -
1787835157 19.44° C 89% 1016.9 hPa 0 mm - 15 W/m² -
1787834856 18.89° C 90% 1017 hPa 0 mm - 15 W/m² -
1787834551 18.89° C 90% 1016.6 hPa 0 mm - 14 W/m² -
1787834246 18.89° C 91% 1016.7 hPa 0 mm - 14 W/m² -
1787833942 18.33° C 93% 1016.7 hPa 0 mm - 13 W/m² -
1787833637 18.33° C 94% 1016.6 hPa 0 mm - 12 W/m² -
1787833333 18.33° C 94% 1016.6 hPa 0 mm - 12 W/m² -
1787833028 17.78° C 94% 1016.4 hPa 0 mm - 11 W/m² -
1787832724 17.78° C 94% 1016.6 hPa 0 mm - 10 W/m² -
1787832423 17.78° C 94% 1016.7 hPa 0 mm - 9 W/m² -
1787832122 17.78° C 94% 1016.6 hPa 0 mm - 9 W/m² -

* Rain latest hour (hover to see other rain measurements)
** Current wind speed in m/s (hover to see current wind gust speed)